Location: McMath-Hulbert Observatory
(42.6964°N, 83.3187°W)
Time: 05:17:23
(UTC-05:00)

Tiangong 1 - Visible Passes

Search period start: 12 December 2017 00:00
Search period end: 22 December 2017 00:00
Orbit: 276 x 303 km, 42.8° (Epoch: 11 December)

Date Brightness Start Highest point End Pass type
(mag) Time Alt. Az. Time Alt. Az. Time Alt. Az.
18 Dec 3.6 07:09:21 10° S 07:10:54 15° SSE 07:12:28 10° ESE visible
19 Dec 2.8 07:12:33 10° SW 07:14:42 25° SSE 07:16:52 10° E visible
20 Dec 1.8 07:16:04 10° SW 07:18:27 40° SSE 07:20:52 10° E visible
21 Dec 3.7 05:48:32 14° SE 05:48:32 14° SE 05:49:30 10° ESE visible
21 Dec 0.9 07:19:41 10° WSW 07:22:09 63° SSE 07:24:40 10° E visible
